Location: Maccacari
(45.1333°N, 11.1333°E)
Time: 02:52:40
(UTC+00:00)

Altair - Pass Details

Date: 28 January 2021
Orbit: 1501 x 1682 km, 47.2° (Epoch: 01 March)

Event Time Altitude Azimuth Distance (km) Brightness Sun altitude
Rises 07:29:10 0° 284° (WNW) 4,917 9.5 6.7°
Reaches altitude 10° 07:32:19 10° 285° (WNW) 3,939 9.1 7.2°
Maximum altitude 07:42:32 89° 13° (NNE) 1,686 7.9 8.6°
Drops below altitude 10° 07:52:41 10° 108° (ESE) 3,909 11.3 10.0°
Sets 07:55:48 0° 108° (ESE) 4,879 11.6 10.5°
